Time,TemperatureF,DewpointF,PressureIn,WindDirection,WindDirectionDegrees,WindSpeedMPH,WindSpeedGustMPH,Humidity,HourlyPrecipIn,Conditions,Clouds,dailyrainin,SoftwareType,DateUTC
2016-07-30 00:01:00,73.0,72.0,29.92,SE,130,-999.9,-999.0,98,-99.99,,,-99.99,,2016-07-30 04:01:00,
2016-07-30 00:11:00,73.0,72.0,29.92,North,-9999,-999.9,-999.0,98,-99.99,,,-99.99,,2016-07-30 04:11:00,
2016-07-30 00:21:00,73.0,72.0,29.92,SE,130,0.0,-999.0,98,-99.99,,,-99.99,,2016-07-30 04:21:00,
2016-07-30 00:31:00,73.0,73.0,29.92,SE,128,-999.9,-999.0,99,-99.99,,,-99.99,,2016-07-30 04:31:00,
2016-07-30 01:13:00,73.0,73.0,29.91,North,-9999,-999.9,-999.0,99,-99.99,,,-99.99,,2016-07-30 05:13:00,
2016-07-30 01:22:00,73.0,73.0,29.91,SE,130,0.0,-999.0,99,-99.99,,,-99.99,,2016-07-30 05:22:00,
2016-07-30 01:42:00,72.0,72.0,29.91,North,-9999,-999.9,-999.0,100,-99.99,,,-99.99,,2016-07-30 05:42:00,
2016-07-30 02:13:00,72.0,72.0,29.90,SE,128,0.0,-999.0,100,-99.99,,,-99.99,,2016-07-30 06:13:00,
2016-07-30 02:27:00,72.0,72.0,29.90,SE,130,0.0,0.0,100,-99.99,,,-99.99,,2016-07-30 06:27:00,
2016-07-30 02:35:00,71.0,71.0,29.90,SE,130,0.0,0.0,100,-99.99,,,-99.99,,2016-07-30 06:35:00,
2016-07-30 02:46:00,71.0,71.0,29.90,SE,130,0.0,0.0,100,-99.99,,,-99.99,,2016-07-30 06:46:00,
2016-07-30 02:57:00,71.0,71.0,29.90,SE,130,0.0,0.0,100,-99.99,,,-99.99,,2016-07-30 06:57:00,
2016-07-30 03:07:00,71.0,71.0,29.89,SE,130,0.0,0.0,100,-99.99,,,-99.99,,2016-07-30 07:07:00,
2016-07-30 03:16:00,71.0,71.0,29.89,SE,130,0.0,0.0,100,-99.99,,,-99.99,,2016-07-30 07:16:00,
2016-07-30 03:29:00,71.0,71.0,29.88,SE,130,0.0,0.0,100,-99.99,,,-99.99,,2016-07-30 07:29:00,
2016-07-30 03:38:00,70.0,70.0,29.88,SE,130,0.0,0.0,100,-99.99,,,-99.99,,2016-07-30 07:38:00,
2016-07-30 03:46:00,70.0,70.0,29.88,SE,130,0.0,0.0,100,-99.99,,,-99.99,,2016-07-30 07:46:00,
2016-07-30 03:54:00,70.0,70.0,29.88,SE,130,0.0,0.0,100,-99.99,,,-99.99,,2016-07-30 07:54:00,
2016-07-30 04:04:00,70.0,70.0,29.88,SE,130,0.0,0.0,100,-99.99,,,-99.99,,2016-07-30 08:04:00,
2016-07-30 04:13:00,70.0,70.0,29.88,SE,130,0.0,0.0,100,-99.99,,,-99.99,,2016-07-30 08:13:00,
2016-07-30 04:23:00,70.0,70.0,29.88,SE,130,0.0,0.0,100,-99.99,,,-99.99,,2016-07-30 08:23:00,
2016-07-30 04:34:00,70.0,70.0,29.88,SE,130,0.0,0.0,100,-99.99,,,-99.99,,2016-07-30 08:34:00,
2016-07-30 04:46:00,70.0,70.0,29.88,SE,130,0.0,0.0,100,-99.99,,,-99.99,,2016-07-30 08:46:00,
2016-07-30 04:54:00,70.0,70.0,29.88,SE,130,0.0,0.0,100,-99.99,,,-99.99,,2016-07-30 08:54:00,
2016-07-30 05:04:00,70.0,70.0,29.88,SE,130,0.0,0.0,100,-99.99,,,-99.99,,2016-07-30 09:04:00,
2016-07-30 05:13:00,70.0,70.0,29.88,SE,130,0.0,0.0,100,-99.99,,,-99.99,,2016-07-30 09:13:00,
2016-07-30 05:23:00,71.0,71.0,29.89,SE,130,0.0,0.0,100,-99.99,,,-99.99,,2016-07-30 09:23:00,
2016-07-30 05:40:00,71.0,71.0,29.89,SE,130,0.0,-999.0,100,-99.99,,,-99.99,,2016-07-30 09:40:00,
2016-07-30 06:11:00,71.0,71.0,29.90,SE,130,0.0,-999.0,100,-99.99,,,-99.99,,2016-07-30 10:11:00,
2016-07-30 06:21:00,71.0,71.0,29.90,SE,130,0.0,-999.0,100,-99.99,,,-99.99,,2016-07-30 10:21:00,
2016-07-30 06:33:00,71.0,71.0,29.90,SE,130,0.0,-999.0,100,-99.99,,,-99.99,,2016-07-30 10:33:00,
2016-07-30 06:40:00,71.0,71.0,29.91,SE,130,0.0,-999.0,100,-99.99,,,-99.99,,2016-07-30 10:40:00,
2016-07-30 07:03:00,71.0,71.0,29.91,SE,130,0.0,-999.0,100,-99.99,,,-99.99,,2016-07-30 11:03:00,
2016-07-30 07:12:00,70.0,70.0,29.91,SE,130,0.0,-999.0,100,-99.99,,,-99.99,,2016-07-30 11:12:00,
2016-07-30 07:23:00,70.0,70.0,29.91,SE,130,0.0,-999.0,100,-99.99,,,-99.99,,2016-07-30 11:23:00,
2016-07-30 07:32:00,70.0,70.0,29.91,SE,130,0.0,-999.0,100,-99.99,,,-99.99,,2016-07-30 11:32:00,
2016-07-30 07:43:00,70.0,70.0,29.92,SE,128,0.0,-999.0,100,-99.99,,,-99.99,,2016-07-30 11:43:00,
2016-07-30 07:58:00,71.0,71.0,29.92,SE,128,0.0,0.0,100,-99.99,,,-99.99,,2016-07-30 11:58:00,
2016-07-30 08:07:00,71.0,71.0,29.93,SE,128,0.0,-999.0,100,-99.99,,,-99.99,,2016-07-30 12:07:00,
2016-07-30 08:14:00,71.0,71.0,29.93,SE,128,0.0,0.0,100,-99.99,,,-99.99,,2016-07-30 12:14:00,
2016-07-30 08:25:00,71.0,71.0,29.93,SE,128,0.0,1.0,100,-99.99,,,-99.99,,2016-07-30 12:25:00,
2016-07-30 08:37:00,71.0,71.0,29.93,SE,127,0.0,0.0,100,-99.99,,,-99.99,,2016-07-30 12:37:00,
2016-07-30 08:50:00,71.0,71.0,29.93,SE,127,0.0,2.0,100,-99.99,,,-99.99,,2016-07-30 12:50:00,
2016-07-30 09:00:00,71.0,71.0,29.93,SE,127,0.0,2.0,100,-99.99,,,-99.99,,2016-07-30 13:00:00,
2016-07-30 09:10:00,71.0,71.0,29.94,SE,128,0.0,1.0,100,-99.99,,,-99.99,,2016-07-30 13:10:00,
2016-07-30 09:25:00,71.0,71.0,29.94,SE,128,0.0,1.0,100,-99.99,,,-99.99,,2016-07-30 13:25:00,
2016-07-30 09:35:00,71.0,71.0,29.94,SE,127,0.0,1.0,100,-99.99,,,-99.99,,2016-07-30 13:35:00,
2016-07-30 09:48:00,71.0,71.0,29.94,SE,127,0.0,1.0,100,-99.99,,,-99.99,,2016-07-30 13:48:00,
2016-07-30 09:55:00,72.0,72.0,29.94,SE,133,0.0,0.0,100,-99.99,,,-99.99,,2016-07-30 13:55:00,
2016-07-30 10:03:00,72.0,72.0,29.95,SE,133,0.0,1.0,100,-99.99,,,-99.99,,2016-07-30 14:03:00,
2016-07-30 10:15:00,72.0,72.0,29.95,SE,133,0.0,1.0,100,-99.99,,,-99.99,,2016-07-30 14:15:00,
2016-07-30 10:24:00,72.0,72.0,29.95,SE,133,0.0,1.0,100,-99.99,,,-99.99,,2016-07-30 14:24:00,
2016-07-30 10:34:00,72.0,72.0,29.96,SE,133,0.0,2.0,100,-99.99,,,-99.99,,2016-07-30 14:34:00,
2016-07-30 10:44:00,72.0,72.0,29.96,SE,133,0.0,2.0,100,-99.99,,,-99.99,,2016-07-30 14:44:00,
2016-07-30 11:04:00,74.0,74.0,29.95,SE,134,0.0,5.0,100,-99.99,,,-99.99,,2016-07-30 15:04:00,
2016-07-30 11:13:00,74.0,74.0,29.95,SE,134,0.0,5.0,100,-99.99,,,-99.99,,2016-07-30 15:13:00,
2016-07-30 11:24:00,75.0,75.0,29.96,SSE,164,0.0,4.0,100,-99.99,,,-99.99,,2016-07-30 15:24:00,
2016-07-30 11:41:00,76.0,76.0,29.96,SSE,164,-999.9,-999.0,99,-99.99,,,-99.99,,2016-07-30 15:41:00,
2016-07-30 12:01:00,77.0,75.0,29.95,SSE,162,0.0,-999.0,95,-99.99,,,-99.99,,2016-07-30 16:01:00,
2016-07-30 12:21:00,78.0,74.0,29.96,SSE,162,0.0,-999.0,87,-99.99,,,-99.99,,2016-07-30 16:21:00,
2016-07-30 12:33:00,79.0,74.0,29.96,SSE,162,-999.9,-999.0,84,-99.99,,,-99.99,,2016-07-30 16:33:00,
2016-07-30 13:22:00,82.0,73.0,29.95,SSE,162,0.0,-999.0,74,-99.99,,,-99.99,,2016-07-30 17:22:00,
2016-07-30 13:32:00,83.0,72.0,29.95,SSE,155,0.0,-999.0,70,-99.99,,,-99.99,,2016-07-30 17:32:00,
2016-07-30 13:44:00,83.0,71.0,29.95,NNW,328,0.0,-999.0,67,-99.99,,,-99.99,,2016-07-30 17:44:00,
2016-07-30 13:52:00,83.0,71.0,29.95,NNW,328,0.0,-999.0,67,-99.99,,,-99.99,,2016-07-30 17:52:00,
2016-07-30 14:06:00,84.0,71.0,29.94,ENE,69,0.0,-999.0,65,-99.99,,,-99.99,,2016-07-30 18:06:00,
2016-07-30 14:12:00,85.0,72.0,29.94,ENE,76,0.0,-999.0,65,-99.99,,,-99.99,,2016-07-30 18:12:00,
2016-07-30 14:22:00,85.0,72.0,29.94,ENE,76,0.0,-999.0,65,-99.99,,,-99.99,,2016-07-30 18:22:00,
2016-07-30 14:29:00,85.0,69.0,29.94,South,188,0.0,5.0,59,-99.99,,,-99.99,,2016-07-30 18:29:00,
2016-07-30 14:36:00,86.0,70.0,29.93,South,188,0.0,5.0,60,-99.99,,,-99.99,,2016-07-30 18:36:00,
2016-07-30 14:46:00,86.0,70.0,29.93,South,188,0.0,5.0,60,-99.99,,,-99.99,,2016-07-30 18:46:00,
2016-07-30 14:57:00,87.0,70.0,29.93,SSE,164,2.0,5.0,57,-99.99,,,-99.99,,2016-07-30 18:57:00,
2016-07-30 15:16:00,87.0,69.0,29.92,SW,215,0.0,3.0,56,-99.99,,,-99.99,,2016-07-30 19:16:00,
2016-07-30 15:26:00,87.0,69.0,29.93,SSW,206,0.0,7.0,56,-99.99,,,-99.99,,2016-07-30 19:26:00,
2016-07-30 15:47:00,86.0,69.0,29.92,ENE,59,0.0,-999.0,57,-99.99,,,-99.99,,2016-07-30 19:47:00,
2016-07-30 15:55:00,86.0,69.0,29.92,ENE,59,0.0,2.0,57,-99.99,,,-99.99,,2016-07-30 19:55:00,
2016-07-30 16:04:00,87.0,70.0,29.92,ENE,65,0.0,3.0,57,-99.99,,,-99.99,,2016-07-30 20:04:00,
2016-07-30 16:14:00,87.0,70.0,29.92,ENE,65,0.0,3.0,57,-99.99,,,-99.99,,2016-07-30 20:14:00,
2016-07-30 16:24:00,87.0,70.0,29.91,NE,52,0.0,3.0,58,-99.99,,,-99.99,,2016-07-30 20:24:00,
2016-07-30 16:36:00,86.0,69.0,29.91,ENE,61,0.0,6.0,58,-99.99,,,-99.99,,2016-07-30 20:36:00,
2016-07-30 16:45:00,86.0,69.0,29.91,ENE,61,0.0,6.0,58,-99.99,,,-99.99,,2016-07-30 20:45:00,
2016-07-30 16:55:00,86.0,70.0,29.91,ENE,58,0.0,4.0,59,-99.99,,,-99.99,,2016-07-30 20:55:00,
2016-07-30 17:04:00,86.0,71.0,29.91,ENE,61,1.0,1.0,61,-99.99,,,-99.99,,2016-07-30 21:04:00,
2016-07-30 17:13:00,86.0,71.0,29.91,ENE,61,1.0,1.0,61,-99.99,,,-99.99,,2016-07-30 21:13:00,
2016-07-30 17:51:00,85.0,70.0,29.92,South,175,0.0,-999.0,61,-99.99,,,-99.99,,2016-07-30 21:51:00,
2016-07-30 18:21:00,84.0,70.0,29.92,South,175,0.0,-999.0,64,-99.99,,,-99.99,,2016-07-30 22:21:00,
2016-07-30 18:31:00,84.0,71.0,29.92,South,175,0.0,-999.0,66,-99.99,,,-99.99,,2016-07-30 22:31:00,
2016-07-30 18:41:00,84.0,72.0,29.92,North,-9999,-999.9,-999.0,68,-99.99,,,-99.99,,2016-07-30 22:41:00,
2016-07-30 18:52:00,84.0,72.0,29.92,South,175,0.0,-999.0,68,-99.99,,,-99.99,,2016-07-30 22:52:00,
2016-07-30 19:12:00,83.0,72.0,29.93,SSW,192,-999.9,-999.0,69,-99.99,,,-99.99,,2016-07-30 23:12:00,
2016-07-30 19:23:00,83.0,72.0,29.93,SSW,192,0.0,-999.0,70,-99.99,,,-99.99,,2016-07-30 23:23:00,
2016-07-30 19:42:00,82.0,71.0,29.93,South,191,0.0,-999.0,69,-99.99,,,-99.99,,2016-07-30 23:42:00,
2016-07-30 20:00:00,82.0,71.0,29.93,South,191,0.0,1.0,69,-99.99,,,-99.99,,2016-07-31 00:00:00,
2016-07-30 20:10:00,82.0,71.0,29.93,South,191,0.0,-999.0,70,-99.99,,,-99.99,,2016-07-31 00:10:00,
2016-07-30 20:26:00,82.0,72.0,29.93,South,188,0.0,0.0,72,-99.99,,,-99.99,,2016-07-31 00:26:00,
2016-07-30 20:35:00,81.0,72.0,29.93,SSW,192,0.0,-999.0,74,-99.99,,,-99.99,,2016-07-31 00:35:00,
2016-07-30 20:45:00,81.0,72.0,29.93,SSW,192,0.0,1.0,74,-99.99,,,-99.99,,2016-07-31 00:45:00,
2016-07-30 20:58:00,80.0,72.0,29.93,South,191,0.0,1.0,76,-99.99,,,-99.99,,2016-07-31 00:58:00,
2016-07-30 21:05:00,80.0,72.0,29.93,South,189,0.0,1.0,78,-99.99,,,-99.99,,2016-07-31 01:05:00,
2016-07-30 21:15:00,80.0,72.0,29.93,South,189,0.0,1.0,78,-99.99,,,-99.99,,2016-07-31 01:15:00,
2016-07-30 21:25:00,79.0,72.0,29.93,South,175,0.0,0.0,79,-99.99,,,-99.99,,2016-07-31 01:25:00,
2016-07-30 21:38:00,78.0,72.0,29.94,SSE,148,0.0,0.0,81,-99.99,,,-99.99,,2016-07-31 01:38:00,
2016-07-30 21:47:00,78.0,72.0,29.94,SSE,148,0.0,0.0,81,-99.99,,,-99.99,,2016-07-31 01:47:00,
2016-07-30 21:59:00,78.0,73.0,29.94,SE,143,0.0,0.0,85,-99.99,,,-99.99,,2016-07-31 01:59:00,
2016-07-30 22:04:00,77.0,73.0,29.94,SE,136,0.0,0.0,87,-99.99,,,-99.99,,2016-07-31 02:04:00,
2016-07-30 22:13:00,77.0,73.0,29.94,SE,136,0.0,0.0,87,-99.99,,,-99.99,,2016-07-31 02:13:00,
2016-07-30 22:24:00,76.0,73.0,29.94,South,188,0.0,0.0,89,-99.99,,,-99.99,,2016-07-31 02:24:00,
2016-07-30 22:34:00,75.0,72.0,29.96,South,185,0.0,0.0,91,-99.99,,,-99.99,,2016-07-31 02:34:00,
2016-07-30 22:44:00,75.0,72.0,29.96,South,185,0.0,0.0,91,-99.99,,,-99.99,,2016-07-31 02:44:00,
2016-07-30 22:55:00,75.0,73.0,29.96,South,185,0.0,0.0,92,-99.99,,,-99.99,,2016-07-31 02:55:00,
2016-07-30 23:04:00,75.0,73.0,29.97,South,182,0.0,0.0,93,-99.99,,,-99.99,,2016-07-31 03:04:00,
2016-07-30 23:13:00,75.0,73.0,29.97,South,182,0.0,0.0,93,-99.99,,,-99.99,,2016-07-31 03:13:00,
2016-07-30 23:24:00,74.0,72.0,29.97,South,181,0.0,0.0,94,-99.99,,,-99.99,,2016-07-31 03:24:00,